Regional Weather Roundup
Issued by NWS

Home | Current Version | Previous Version | Text Only | Print | Product List | Glossary Off
Versions: 1 2 3 4 5 6 7 8 9 10 11 12 13 14 15 16 17 18 19 20 21 22 23 24 25 26 27 28 29 30 31 32 33 34 35 36 37 38 39 40 41 42 43 44 45 46 47 48 49 50

000
ASUS45 KBOI 302210
RWRID

IDAHO REGIONAL WEATHER ROUNDUP
NATIONAL WEATHER SERVICE BOISE ID
400 PM MDT FRI SEP 30 2016

NOTE: "FAIR" INDICATES FEW OR NO CLOUDS BELOW 12000 FEET
WITH NO SIGNIFICANT WEATHER AND/OR OBSTRUCTIONS TO VISIBILITY

IDZ012-014-302300-
SOUTHWEST IDAHO


CITY           SKY/WX    TMP DP  RH WIND       PRES   REMARKS
BOISE          SUNNY     86  31  13 S10G26    29.92F
CALDWELL       SUNNY     84  37  18 MISG      29.89F
MOUNTAIN HOME  MOSUNNY   85  35  17 E10       29.93F
$$

IDZ016-017-302300-
SOUTHCENTRAL IDAHO


CITY           SKY/WX    TMP DP  RH WIND       PRES   REMARKS
BURLEY         MOSUNNY   76  50  40 SE12      30.04F
JEROME         MOSUNNY   77  44  30 E5        30.04F
TWIN FALLS     MOSUNNY   75  44  33 SW16G24   30.06S
$$

IDZ019>023-302300-
SOUTHEAST IDAHO


CITY           SKY/WX    TMP DP  RH WIND       PRES   REMARKS
IDAHO FALLS    MOSUNNY   74  44  34 SW7       30.11F
POCATELLO      PTSUNNY   78  46  32 CALM      30.09F
REXBURG        SUNNY     72  46  39 SW5       30.12F
$$

IDZ006-010-011-018-031-032-302300-
CENTRAL IDAHO MOUNTAINS


CITY           SKY/WX    TMP DP  RH WIND       PRES   REMARKS
MCCALL         MOSUNNY   74  29  19 S17G23    30.04F
HAILEY         MOSUNNY   70  48  46 SE8       30.14F
STANLEY          N/A     70  29  21 S14G21    30.15F
SALMON         MOSUNNY   75  37  25 S20G28    29.98F
CHALLIS        MOSUNNY   69  41  36 CALM      30.07F
$$

IDZ002-004-006-007-026-302300-
NORTHERN IDAHO


CITY           SKY/WX    TMP DP  RH WIND       PRES   REMARKS
LEWISTON       MOSUNNY   79  46  31 CALM      29.84F
LOWELL           N/A     82  56  40 N3        29.81F
COEUR D`ALENE  MOSUNNY   74  52  46 W6        29.92F
MULLAN PASS    SUNNY     65  35  33 VRB7G21   30.08S
$$



USA.gov is the U.S. government's official web portal to all federal, state and local government web resources and services.